User: anonymous   Login
Location: Wingville
(42.9917°N, 90.4915°W)
Time: 10:35:58
(UTC+00:00)
Language:

NOAA 19 - Orbit

View from above orbital plane
View from above orbital plane
View from above satellite
View from above satellite

Ground track
Ground track

The orbit data is extracted from the following two-line orbital elements,

1 33591U 09005A   22175.85727520  .00000127  00000-0  93471-4 0  9996
2 33591  99.1469 210.1497 0014259 163.3336 196.8306 14.12580221689238
Epoch (UTC): 24 June 2022 20:34:28
Eccentricity: 0.0014259
inclination: 99.1469°
perigee height: 840 km
apogee height: 861 km
right ascension of ascending node: 210.1497°
argument of perigee: 163.3336°
revolutions per day: 14.12580221
mean anomaly at epoch: 196.8306°
orbit number at epoch: 68923

The dashed part of the orbit path shows where the satellite is in the earth's shadow,  

DLR